Date String (YYYY-MM-DD hh:mm:ss) UTC,Instrument flags,Ambient pressure (hPa),Sample flow (lpm),Bypass flow (lpm),Sample temperature (°C),Ambient temperature (°C),ASC tube jacket temperature (°C),LED temperature (°C),Box temperature (°C),Sample RH (%),Span deviation,Mass concentration (μg/m³),Mass concentration (μg/m³),Mass concentration (μg/m³)
DateTimeUTC,F1_M11,P_M11,Q1_M11,Q2_M11,T1_M11,T2_M11,T3_M11,T4_M11,T5_M11,U1_M11,ZSPAN_M11,X0_M11,X2_M11,X1_M11
2023-05-07 18:00:00,,0828.6,5.00,0.00,30.6,29.3,00.0,38.9,32.1,13.1,0000.0,0012.10,0004.71,0003.64
2023-05-07 18:01:00,,0828.6,4.99,0.00,30.6,29.3,00.0,39.0,32.1,13.3,0000.0,0011.82,0004.60,0003.59
2023-05-07 18:02:00,,0828.6,4.99,0.00,30.6,29.3,00.0,39.0,32.1,13.8,0000.0,0012.85,0004.58,0003.56
2023-05-07 18:03:00,,0828.6,5.00,0.00,30.6,29.3,00.0,39.0,32.1,14.1,0000.0,0013.32,0004.59,0003.55
2023-05-07 18:04:00,,0828.6,5.01,0.00,30.7,29.3,00.0,39.0,32.1,14.6,0000.0,0013.51,0004.54,0003.54
2023-05-07 18:05:00,,0828.6,5.00,0.00,30.7,29.3,00.0,39.0,32.1,14.5,0000.0,0013.06,0004.48,0003.51
2023-05-07 18:06:00,,0828.6,5.00,0.00,30.7,29.3,00.0,39.0,32.1,13.5,0000.0,0012.66,0004.48,0003.51
2023-05-07 18:07:00,,0828.6,5.00,0.00,30.7,29.3,00.0,39.0,32.2,14.1,0000.0,0012.93,0004.51,0003.51
2023-05-07 18:08:00,,0828.6,5.00,0.00,30.7,29.3,00.0,39.0,32.2,14.2,0000.0,0013.07,0004.52,0003.51
2023-05-07 18:09:00,,0828.6,5.01,0.00,30.7,29.3,00.0,39.0,32.2,13.9,0000.0,0013.34,0004.47,0003.48
2023-05-07 18:10:00,,0828.6,5.00,0.00,30.7,29.3,00.0,39.0,32.2,13.9,0000.0,0012.86,0004.40,0003.44
2023-05-07 18:11:00,,0828.6,5.00,0.00,30.7,29.3,00.0,39.0,32.2,14.0,0000.0,0013.78,0004.36,0003.40
2023-05-07 18:12:00,,0828.6,4.99,0.00,30.7,29.3,00.0,39.0,32.2,13.9,0000.0,0013.79,0004.35,0003.39
2023-05-07 18:13:00,,0828.6,4.99,0.00,30.7,29.4,00.0,39.1,32.1,13.9,0000.0,0013.16,0004.32,0003.36
2023-05-07 18:14:00,,0828.6,5.00,0.00,30.7,29.4,00.0,39.1,32.2,13.5,0000.0,0012.39,0004.34,0003.33
2023-05-07 18:15:00,,0828.6,5.01,0.00,30.7,29.4,00.0,39.1,32.2,13.3,0000.0,0012.72,0004.33,0003.33
2023-05-07 18:16:00,,0828.6,5.00,0.00,30.7,29.4,00.0,39.1,32.2,13.2,0000.0,0012.77,0004.37,0003.33
2023-05-07 18:17:00,,0828.6,4.99,0.00,30.7,29.4,00.0,39.1,32.2,13.2,0000.0,0013.11,0004.36,0003.34
2023-05-07 18:18:00,,0828.6,5.00,0.00,30.7,29.4,00.0,39.1,32.3,13.6,0000.0,0013.03,0004.32,0003.34
2023-05-07 18:19:00,,0828.6,5.01,0.00,30.8,29.4,00.0,39.1,32.2,13.4,0000.0,0012.85,0004.31,0003.34
2023-05-07 18:20:00,,0828.7,5.01,0.00,30.8,29.4,00.0,39.1,32.2,13.6,0000.0,0012.65,0004.36,0003.38
2023-05-07 18:21:00,,0828.7,5.00,0.00,30.8,29.4,00.0,39.1,32.2,13.4,0000.0,0012.44,0004.44,0003.42
2023-05-07 18:22:00,,0828.8,5.00,0.00,30.8,29.5,00.0,39.1,32.2,13.3,0000.0,0011.41,0004.55,0003.47
2023-05-07 18:23:00,,0828.8,4.99,0.00,30.8,29.5,00.0,39.1,32.3,13.3,0000.0,0011.40,0004.57,0003.50
2023-05-07 18:24:00,,0828.8,5.00,0.00,30.8,29.5,00.0,39.1,32.3,13.6,0000.0,0011.48,0004.60,0003.53
2023-05-07 18:25:00,,0828.9,5.00,0.00,30.8,29.5,00.0,39.2,32.3,13.4,0000.0,0011.73,0004.62,0003.56
2023-05-07 18:26:00,,0828.9,5.01,0.00,30.8,29.5,00.0,39.2,32.2,13.9,0000.0,0011.22,0004.64,0003.56
2023-05-07 18:27:00,,0829.0,5.00,0.00,30.8,29.5,00.0,39.2,32.2,13.7,0000.0,0011.27,0004.63,0003.56
2023-05-07 18:28:00,,0828.9,5.00,0.00,30.8,29.4,00.0,39.2,32.2,13.7,0000.0,0011.55,0004.65,0003.56
2023-05-07 18:29:00,,0829.0,5.00,0.00,30.8,29.4,00.0,39.2,32.3,13.9,0000.0,0012.24,0004.67,0003.56
2023-05-07 18:30:00,,0829.0,5.00,0.00,30.8,29.4,00.0,39.2,32.2,14.1,0000.0,0012.43,0004.67,0003.57
2023-05-07 18:31:00,,0829.0,5.00,0.00,30.8,29.4,00.0,39.2,32.3,15.2,0000.0,0012.68,0004.62,0003.56
2023-05-07 18:32:00,,0828.9,5.00,0.00,30.8,29.3,00.0,39.2,32.2,14.7,0000.0,0012.79,0004.51,0003.50
2023-05-07 18:33:00,,0828.8,5.00,0.00,30.8,29.2,00.0,39.2,32.2,14.0,0000.0,0012.46,0004.35,0003.42
2023-05-07 18:34:00,,0828.8,5.01,0.00,30.7,29.1,00.0,39.2,32.2,14.3,0000.0,0012.20,0004.21,0003.33
2023-05-07 18:35:00,,0828.8,5.02,0.00,30.7,29.0,00.0,39.2,32.1,14.7,0000.0,0011.96,0004.07,0003.24
2023-05-07 18:36:00,,0828.8,4.99,0.00,30.7,29.0,00.0,39.2,32.1,13.7,0000.0,0011.27,0003.94,0003.15
2023-05-07 18:37:00,,0828.7,4.99,0.00,30.7,29.0,00.0,39.2,32.1,13.4,0000.0,0010.78,0003.79,0003.03
2023-05-07 18:38:00,,0828.6,5.01,0.00,30.7,29.1,00.0,39.2,32.2,14.0,0000.0,0010.43,0003.67,0002.87
2023-05-07 18:39:00,,0828.6,5.00,0.00,30.7,29.1,00.0,39.2,32.2,13.6,0000.0,0009.49,0003.56,0002.72
2023-05-07 18:40:00,,0828.6,4.99,0.00,30.7,29.2,00.0,39.2,32.2,13.6,0000.0,0008.49,0003.45,0002.57
2023-05-07 18:41:00,,0828.5,4.99,0.00,30.7,29.3,00.0,39.2,32.2,14.2,0000.0,0008.21,0003.39,0002.44
2023-05-07 18:42:00,,0828.5,4.99,0.00,30.7,29.3,00.0,39.2,32.2,14.8,0000.0,0007.65,0003.29,0002.27
2023-05-07 18:43:00,,0828.5,5.02,0.00,30.7,29.3,00.0,39.2,32.2,14.0,0000.0,0007.27,0003.21,0002.20
2023-05-07 18:44:00,,0828.5,4.99,0.00,30.8,29.3,00.0,39.2,32.2,14.2,0000.0,0008.06,0003.19,0002.18
2023-05-07 18:45:00,,0828.5,5.00,0.00,30.8,29.4,00.0,39.2,32.3,14.3,0000.0,0008.09,0003.23,0002.18
2023-05-07 18:46:00,,0828.5,5.00,0.00,30.8,29.4,00.0,39.2,32.3,13.4,0000.0,0007.98,0003.24,0002.20
2023-05-07 18:47:00,,0828.5,5.00,0.00,30.8,29.4,00.0,39.2,32.3,13.6,0000.0,0007.62,0003.22,0002.18
2023-05-07 18:48:00,,0828.5,5.02,0.00,30.8,29.4,00.0,39.2,32.3,14.2,0000.0,0008.11,0003.21,0002.14
2023-05-07 18:49:00,,0828.4,5.00,0.00,30.8,29.4,00.0,39.2,32.3,13.5,0000.0,0008.33,0003.18,0002.14
2023-05-07 18:50:00,,0828.4,5.01,0.00,30.8,29.4,00.0,39.2,32.3,13.8,0000.0,0008.35,0003.15,0002.10
2023-05-07 18:51:00,,0828.4,5.00,0.00,30.8,29.4,00.0,39.2,32.4,13.8,0000.0,0008.38,0003.07,0002.04
2023-05-07 18:52:00,,0828.3,5.00,0.00,30.8,29.4,00.0,39.2,32.3,14.3,0000.0,0008.92,0002.96,0001.98
2023-05-07 18:53:00,,0828.3,4.99,0.00,30.8,29.5,00.0,39.2,32.4,14.4,0000.0,0008.85,0002.87,0001.93
2023-05-07 18:54:00,,0828.3,4.99,0.00,30.9,29.5,00.0,39.2,32.4,14.5,0000.0,0008.61,0002.93,0001.91
2023-05-07 18:55:00,,0828.2,5.01,0.00,30.9,29.5,00.0,39.2,32.4,14.5,0000.0,0008.06,0002.98,0001.95
2023-05-07 18:56:00,,0828.2,5.02,0.00,30.9,29.5,00.0,39.2,32.4,14.7,0000.0,0008.11,0003.02,0002.00
2023-05-07 18:57:00,,0828.2,5.00,0.00,30.9,29.5,00.0,39.2,32.4,14.2,0000.0,0008.15,0003.11,0002.06
2023-05-07 18:58:00,,0828.2,4.99,0.00,30.9,29.5,00.0,39.2,32.4,14.3,0000.0,0008.20,0003.16,0002.14
2023-05-07 18:59:00,,0828.1,5.00,0.00,30.9,29.5,00.0,39.2,32.4,15.0,0000.0,0008.09,0003.23,0002.25
